カタログに戻る

FENGYUN 1C DEB

運用中SSO
NORAD 32440·DEBRIS·🇨🇳 China

打ち上げ May 10, 1999 から Taiyuan Satellite Launch Center

Loading…

次のパス (今後24時間)

TLE

最新Source: Space-Track

元期: Sep 14, 2026, 08:36 UTC

1 32440U 99025DBC 26257.35884495  .00001721  00000-0  15956-2 0  9995
2 32440  99.1353 100.9996 0320273  98.4101 265.3478 13.62790678640384

AllMySatでFENGYUN 1C DEBをリアルタイム追跡

Download on the App Store